Time,TemperatureF,DewpointF,PressureIn,WindDirection,WindDirectionDegrees,WindSpeedMPH,WindSpeedGustMPH,Humidity,HourlyPrecipIn,Conditions,Clouds,dailyrainin,SoftwareType,DateUTC
2013-03-05 00:01:00,42.0,21.0,29.39,NNW,338,0.0,0.0,42,0.00,,,0.00,,2013-03-05 08:01:00,
2013-03-05 00:11:00,42.0,21.0,29.39,NNW,338,0.0,0.0,42,0.00,,,0.00,,2013-03-05 08:11:00,
2013-03-05 00:21:00,41.0,21.0,29.38,ESE,113,0.0,1.0,44,0.00,,,0.00,,2013-03-05 08:21:00,
2013-03-05 00:31:00,40.0,20.0,29.38,ENE,72,0.0,1.0,45,0.00,,,0.00,,2013-03-05 08:31:00,
2013-03-05 00:41:00,40.0,20.0,29.38,ENE,72,0.0,1.0,45,0.00,,,0.00,,2013-03-05 08:41:00,
2013-03-05 00:52:00,40.0,21.0,29.38,East,90,0.0,1.0,46,0.00,,,0.00,,2013-03-05 08:52:00,
2013-03-05 01:01:00,40.0,21.0,29.37,ESE,113,1.0,2.0,47,0.00,,,0.00,,2013-03-05 09:01:00,
2013-03-05 01:11:00,40.0,21.0,29.37,ESE,113,1.0,2.0,47,0.00,,,0.00,,2013-03-05 09:11:00,
2013-03-05 01:21:00,40.0,21.0,29.37,WNW,293,0.0,0.0,47,0.00,,,0.00,,2013-03-05 09:21:00,
2013-03-05 01:31:00,40.0,21.0,29.37,West,270,0.0,0.0,47,0.00,,,0.00,,2013-03-05 09:31:00,
2013-03-05 01:42:00,40.0,21.0,29.37,West,270,0.0,0.0,47,0.00,,,0.00,,2013-03-05 09:42:00,
2013-03-05 01:52:00,40.0,22.0,29.37,ESE,113,0.0,0.0,48,0.00,,,0.00,,2013-03-05 09:52:00,
2013-03-05 02:01:00,40.0,22.0,29.36,East,90,1.0,3.0,48,0.00,,,0.00,,2013-03-05 10:01:00,
2013-03-05 02:11:00,40.0,22.0,29.36,East,90,1.0,3.0,48,0.00,,,0.00,,2013-03-05 10:11:00,
2013-03-05 02:21:00,39.0,21.0,29.36,ESE,113,1.0,2.0,49,0.00,,,0.00,,2013-03-05 10:21:00,
2013-03-05 02:32:00,39.0,22.0,29.36,ENE,68,1.0,1.0,50,0.00,,,0.00,,2013-03-05 10:32:00,
2013-03-05 02:41:00,39.0,22.0,29.36,ENE,68,1.0,1.0,50,0.00,,,0.00,,2013-03-05 10:41:00,
2013-03-05 02:52:00,40.0,22.0,29.36,NNE,23,1.0,2.0,49,0.00,,,0.00,,2013-03-05 10:52:00,
2013-03-05 03:01:00,39.0,22.0,29.36,East,90,1.0,2.0,51,0.00,,,0.00,,2013-03-05 11:01:00,
2013-03-05 03:11:00,39.0,22.0,29.36,East,90,1.0,2.0,51,0.00,,,0.00,,2013-03-05 11:11:00,
2013-03-05 03:21:00,39.0,23.0,29.34,ESE,113,1.0,2.0,52,0.00,,,0.00,,2013-03-05 11:21:00,
2013-03-05 03:32:00,39.0,22.0,29.34,ESE,113,1.0,2.0,51,0.00,,,0.00,,2013-03-05 11:32:00,
2013-03-05 03:41:00,39.0,22.0,29.34,ESE,113,1.0,2.0,51,0.00,,,0.00,,2013-03-05 11:41:00,
2013-03-05 03:52:00,39.0,22.0,29.33,East,90,1.0,2.0,51,0.00,,,0.00,,2013-03-05 11:52:00,
2013-03-05 04:02:00,39.0,22.0,29.33,NNW,338,0.0,1.0,51,0.00,,,0.00,,2013-03-05 12:02:00,
2013-03-05 04:11:00,39.0,22.0,29.33,NNW,338,0.0,1.0,51,0.00,,,0.00,,2013-03-05 12:11:00,
2013-03-05 04:22:00,40.0,23.0,29.32,NW,315,0.0,0.0,51,0.00,,,0.00,,2013-03-05 12:22:00,
2013-03-05 04:32:00,40.0,24.0,29.32,East,90,0.0,1.0,52,0.00,,,0.00,,2013-03-05 12:32:00,
2013-03-05 04:42:00,40.0,24.0,29.32,East,90,0.0,1.0,52,0.00,,,0.00,,2013-03-05 12:42:00,
2013-03-05 04:52:00,40.0,24.0,29.32,ESE,113,0.0,1.0,53,0.00,,,0.00,,2013-03-05 12:52:00,
2013-03-05 05:01:00,40.0,24.0,29.32,ESE,113,1.0,1.0,52,0.00,,,0.00,,2013-03-05 13:01:00,
2013-03-05 05:11:00,40.0,24.0,29.32,ESE,113,1.0,1.0,52,0.00,,,0.00,,2013-03-05 13:11:00,
2013-03-05 05:21:00,40.0,24.0,29.32,ESE,113,1.0,2.0,53,0.00,,,0.00,,2013-03-05 13:21:00,
2013-03-05 05:31:00,40.0,24.0,29.32,East,90,1.0,3.0,53,0.00,,,0.00,,2013-03-05 13:31:00,
2013-03-05 05:41:00,40.0,24.0,29.32,East,90,1.0,3.0,53,0.00,,,0.00,,2013-03-05 13:41:00,
2013-03-05 05:52:00,40.0,24.0,29.31,ESE,113,1.0,1.0,52,0.00,,,0.00,,2013-03-05 13:52:00,
2013-03-05 06:02:00,40.0,24.0,29.30,ESE,113,1.0,1.0,52,0.00,,,0.00,,2013-03-05 14:02:00,
2013-03-05 06:11:00,40.0,24.0,29.30,ESE,113,1.0,1.0,52,0.00,,,0.00,,2013-03-05 14:11:00,
2013-03-05 06:21:00,40.0,24.0,29.29,NE,45,1.0,1.0,53,0.00,,,0.00,,2013-03-05 14:21:00,
2013-03-05 06:31:00,40.0,24.0,29.28,East,90,2.0,2.0,53,0.00,,,0.00,,2013-03-05 14:31:00,
2013-03-05 06:41:00,40.0,24.0,29.28,East,90,2.0,2.0,53,0.00,,,0.00,,2013-03-05 14:41:00,
2013-03-05 06:52:00,40.0,24.0,29.28,East,90,1.0,2.0,53,0.00,,,0.00,,2013-03-05 14:52:00,
2013-03-05 07:01:00,40.0,24.0,29.28,ESE,113,1.0,1.0,52,0.00,,,0.00,,2013-03-05 15:01:00,
2013-03-05 07:11:00,40.0,24.0,29.28,ESE,113,1.0,1.0,52,0.00,,,0.00,,2013-03-05 15:11:00,
2013-03-05 07:21:00,41.0,25.0,29.29,ESE,113,0.0,1.0,53,0.00,,,0.00,,2013-03-05 15:21:00,
2013-03-05 07:31:00,42.0,26.0,29.29,NW,315,0.0,0.0,52,0.00,,,0.00,,2013-03-05 15:31:00,
2013-03-05 07:42:00,42.0,26.0,29.29,NW,315,0.0,0.0,52,0.00,,,0.00,,2013-03-05 15:42:00,
2013-03-05 07:52:00,42.0,25.0,29.29,NE,45,0.0,1.0,51,0.00,,,0.00,,2013-03-05 15:52:00,
2013-03-05 08:01:00,42.0,26.0,29.29,NNW,338,0.0,0.0,53,0.00,,,0.00,,2013-03-05 16:01:00,
2013-03-05 08:11:00,42.0,26.0,29.29,NNW,338,0.0,0.0,53,0.00,,,0.00,,2013-03-05 16:11:00,
2013-03-05 08:21:00,42.0,26.0,29.30,WNW,293,1.0,2.0,53,0.00,,,0.00,,2013-03-05 16:21:00,
2013-03-05 08:31:00,43.0,27.0,29.31,SE,135,0.0,0.0,53,0.00,,,0.00,,2013-03-05 16:31:00,
2013-03-05 08:41:00,43.0,27.0,29.31,SE,135,0.0,0.0,53,0.00,,,0.00,,2013-03-05 16:41:00,
2013-03-05 08:51:00,43.0,28.0,29.31,NNW,338,0.0,0.0,54,0.00,,,0.00,,2013-03-05 16:51:00,
2013-03-05 09:01:00,44.0,28.0,29.32,East,90,0.0,0.0,54,0.00,,,0.00,,2013-03-05 17:01:00,
2013-03-05 09:11:00,44.0,28.0,29.32,East,90,0.0,0.0,54,0.00,,,0.00,,2013-03-05 17:11:00,
2013-03-05 09:21:00,44.0,29.0,29.32,East,90,1.0,1.0,56,0.00,,,0.00,,2013-03-05 17:21:00,
2013-03-05 09:32:00,44.0,29.0,29.32,East,90,0.0,1.0,56,0.00,,,0.00,,2013-03-05 17:32:00,
2013-03-05 09:41:00,44.0,29.0,29.32,East,90,0.0,1.0,56,0.00,,,0.00,,2013-03-05 17:41:00,
2013-03-05 09:52:00,45.0,30.0,29.31,North,0,0.0,0.0,56,0.00,,,0.00,,2013-03-05 17:52:00,
2013-03-05 10:01:00,46.0,31.0,29.31,East,90,0.0,0.0,55,0.00,,,0.00,,2013-03-05 18:01:00,
2013-03-05 10:11:00,46.0,31.0,29.31,East,90,0.0,0.0,55,0.00,,,0.00,,2013-03-05 18:11:00,
2013-03-05 10:21:00,46.0,30.0,29.31,ENE,68,0.0,2.0,54,0.00,,,0.00,,2013-03-05 18:21:00,
2013-03-05 10:32:00,47.0,31.0,29.31,West,270,1.0,1.0,53,0.00,,,0.00,,2013-03-05 18:32:00,
2013-03-05 10:41:00,47.0,31.0,29.31,West,270,1.0,1.0,53,0.00,,,0.00,,2013-03-05 18:41:00,
2013-03-05 10:53:00,48.0,31.0,29.30,ENE,68,0.0,1.0,51,0.00,,,0.00,,2013-03-05 18:53:00,
2013-03-05 11:01:00,49.0,31.0,29.30,ENE,68,0.0,1.0,50,0.00,,,0.00,,2013-03-05 19:01:00,
2013-03-05 11:11:00,49.0,31.0,29.30,ENE,68,0.0,1.0,50,0.00,,,0.00,,2013-03-05 19:11:00,
2013-03-05 11:21:00,50.0,30.0,29.30,NNW,338,1.0,2.0,46,0.00,,,0.00,,2013-03-05 19:21:00,
2013-03-05 11:31:00,51.0,31.0,29.28,East,90,1.0,1.0,46,0.00,,,0.00,,2013-03-05 19:31:00,
2013-03-05 11:41:00,51.0,31.0,29.28,East,90,1.0,1.0,46,0.00,,,0.00,,2013-03-05 19:41:00,
2013-03-05 11:52:00,51.0,30.0,29.28,NNE,23,1.0,1.0,45,0.00,,,0.00,,2013-03-05 19:52:00,
2013-03-05 12:01:00,52.0,30.0,29.28,NNW,338,1.0,3.0,43,0.00,,,0.00,,2013-03-05 20:01:00,
2013-03-05 12:11:00,52.0,29.0,29.27,NNW,338,1.0,4.0,41,0.00,,,0.00,,2013-03-05 20:11:00,
2013-03-05 12:21:00,52.0,29.0,29.27,NNW,338,1.0,4.0,41,0.00,,,0.00,,2013-03-05 20:21:00,
2013-03-05 12:32:00,51.0,27.0,29.27,NNE,23,2.0,2.0,39,0.00,,,0.00,,2013-03-05 20:32:00,
2013-03-05 12:41:00,51.0,27.0,29.27,NNE,23,2.0,2.0,39,0.00,,,0.00,,2013-03-05 20:41:00,
2013-03-05 12:52:00,51.0,29.0,29.27,NNW,338,1.0,2.0,42,0.00,,,0.00,,2013-03-05 20:52:00,
2013-03-05 13:01:00,52.0,30.0,29.27,WNW,293,1.0,3.0,42,0.00,,,0.00,,2013-03-05 21:01:00,
2013-03-05 13:11:00,52.0,30.0,29.27,WNW,293,1.0,3.0,42,0.00,,,0.00,,2013-03-05 21:11:00,
2013-03-05 13:21:00,52.0,30.0,29.27,SW,225,2.0,3.0,43,0.00,,,0.00,,2013-03-05 21:21:00,
2013-03-05 13:31:00,52.0,33.0,29.27,West,270,2.0,4.0,48,0.00,,,0.00,,2013-03-05 21:31:00,
2013-03-05 13:41:00,52.0,33.0,29.27,West,270,2.0,4.0,48,0.00,,,0.00,,2013-03-05 21:41:00,
2013-03-05 13:52:00,52.0,33.0,29.27,WNW,293,2.0,3.0,49,0.00,,,0.00,,2013-03-05 21:52:00,
2013-03-05 14:01:00,52.0,33.0,29.27,NNW,338,1.0,2.0,49,0.00,,,0.00,,2013-03-05 22:01:00,
2013-03-05 14:11:00,52.0,33.0,29.27,NNW,338,1.0,2.0,49,0.00,,,0.00,,2013-03-05 22:11:00,
2013-03-05 14:21:00,51.0,34.0,29.27,SSE,158,1.0,3.0,52,0.00,,,0.00,,2013-03-05 22:21:00,
2013-03-05 14:31:00,51.0,34.0,29.27,SE,135,1.0,4.0,52,0.00,,,0.00,,2013-03-05 22:31:00,
2013-03-05 14:41:00,51.0,34.0,29.27,SE,135,1.0,4.0,52,0.00,,,0.00,,2013-03-05 22:41:00,
2013-03-05 14:52:00,51.0,34.0,29.25,WNW,293,1.0,1.0,51,0.00,,,0.00,,2013-03-05 22:52:00,
2013-03-05 15:01:00,50.0,33.0,29.26,North,0,1.0,1.0,52,0.00,,,0.00,,2013-03-05 23:01:00,
2013-03-05 15:11:00,50.0,33.0,29.26,North,0,1.0,1.0,52,0.00,,,0.00,,2013-03-05 23:11:00,
2013-03-05 15:21:00,50.0,34.0,29.25,SW,225,1.0,2.0,53,0.00,,,0.00,,2013-03-05 23:21:00,
2013-03-05 15:32:00,50.0,34.0,29.25,West,270,0.0,1.0,53,0.00,,,0.00,,2013-03-05 23:32:00,
2013-03-05 15:41:00,50.0,34.0,29.25,West,270,0.0,1.0,53,0.00,,,0.00,,2013-03-05 23:41:00,
2013-03-05 15:52:00,50.0,34.0,29.25,South,180,0.0,0.0,54,0.00,,,0.00,,2013-03-05 23:52:00,
2013-03-05 16:01:00,50.0,34.0,29.26,WSW,248,1.0,2.0,54,0.00,,,0.00,,2013-03-06 00:01:00,
2013-03-05 16:11:00,50.0,34.0,29.26,WSW,248,1.0,2.0,54,0.00,,,0.00,,2013-03-06 00:11:00,
2013-03-05 16:21:00,49.0,33.0,29.24,WSW,248,1.0,1.0,54,0.00,,,0.00,,2013-03-06 00:21:00,
2013-03-05 16:32:00,49.0,34.0,29.24,West,270,0.0,1.0,55,0.00,,,0.00,,2013-03-06 00:32:00,
2013-03-05 16:41:00,49.0,34.0,29.24,West,270,0.0,1.0,55,0.00,,,0.00,,2013-03-06 00:41:00,
2013-03-05 16:52:00,49.0,34.0,29.26,WNW,293,0.0,1.0,55,0.00,,,0.00,,2013-03-06 00:52:00,
2013-03-05 17:01:00,49.0,34.0,29.25,SW,225,0.0,0.0,55,0.00,,,0.00,,2013-03-06 01:01:00,
2013-03-05 17:11:00,49.0,34.0,29.25,SW,225,0.0,0.0,55,0.00,,,0.00,,2013-03-06 01:11:00,
2013-03-05 17:21:00,48.0,33.0,29.25,NE,45,0.0,1.0,56,0.00,,,0.00,,2013-03-06 01:21:00,
2013-03-05 17:31:00,48.0,34.0,29.25,NNW,338,0.0,0.0,58,0.00,,,0.00,,2013-03-06 01:31:00,
2013-03-05 17:41:00,48.0,34.0,29.25,NNW,338,0.0,0.0,58,0.00,,,0.00,,2013-03-06 01:41:00,
2013-03-05 17:52:00,48.0,34.0,29.24,NW,315,0.0,2.0,58,0.00,,,0.00,,2013-03-06 01:52:00,
2013-03-05 18:01:00,47.0,33.0,29.25,North,0,0.0,1.0,59,0.00,,,0.00,,2013-03-06 02:01:00,
2013-03-05 18:11:00,47.0,33.0,29.25,North,0,0.0,1.0,59,0.00,,,0.00,,2013-03-06 02:11:00,
2013-03-05 18:21:00,47.0,34.0,29.24,WNW,293,0.0,0.0,60,0.00,,,0.00,,2013-03-06 02:21:00,
2013-03-05 18:31:00,46.0,34.0,29.24,NNW,338,1.0,2.0,62,0.00,,,0.00,,2013-03-06 02:31:00,
2013-03-05 18:41:00,46.0,34.0,29.24,NNW,338,1.0,2.0,62,0.00,,,0.00,,2013-03-06 02:41:00,
2013-03-05 18:52:00,46.0,34.0,29.26,WNW,293,1.0,2.0,63,0.00,,,0.00,,2013-03-06 02:52:00,
2013-03-05 19:01:00,46.0,35.0,29.25,NW,315,0.0,1.0,65,0.00,,,0.00,,2013-03-06 03:01:00,
2013-03-05 19:11:00,46.0,35.0,29.25,NW,315,0.0,1.0,65,0.00,,,0.00,,2013-03-06 03:11:00,
2013-03-05 19:21:00,45.0,34.0,29.25,North,0,0.0,2.0,66,0.00,,,0.00,,2013-03-06 03:21:00,
2013-03-05 19:31:00,45.0,34.0,29.25,North,0,0.0,1.0,66,0.00,,,0.00,,2013-03-06 03:31:00,
2013-03-05 19:41:00,45.0,34.0,29.25,North,0,0.0,1.0,66,0.00,,,0.00,,2013-03-06 03:41:00,
2013-03-05 19:52:00,45.0,35.0,29.25,SSW,203,0.0,0.0,67,0.00,,,0.00,,2013-03-06 03:52:00,
2013-03-05 20:01:00,45.0,35.0,29.25,North,0,0.0,0.0,67,0.00,,,0.00,,2013-03-06 04:01:00,
2013-03-05 20:11:00,45.0,35.0,29.25,North,0,0.0,0.0,67,0.00,,,0.00,,2013-03-06 04:11:00,
2013-03-05 20:21:00,45.0,35.0,29.25,West,270,0.0,0.0,67,0.00,,,0.00,,2013-03-06 04:21:00,
2013-03-05 20:31:00,45.0,35.0,29.25,ENE,68,0.0,0.0,68,0.00,,,0.00,,2013-03-06 04:31:00,
2013-03-05 20:41:00,45.0,35.0,29.25,ENE,68,0.0,0.0,68,0.00,,,0.00,,2013-03-06 04:41:00,
2013-03-05 20:52:00,45.0,35.0,29.24,NNW,338,0.0,0.0,68,0.00,,,0.00,,2013-03-06 04:52:00,
2013-03-05 21:01:00,44.0,34.0,29.23,West,270,0.0,0.0,69,0.00,,,0.00,,2013-03-06 05:01:00,
2013-03-05 21:11:00,44.0,34.0,29.23,West,270,0.0,0.0,69,0.00,,,0.00,,2013-03-06 05:11:00,
2013-03-05 21:22:00,44.0,35.0,29.25,ESE,113,1.0,2.0,70,0.00,,,0.00,,2013-03-06 05:22:00,
2013-03-05 21:32:00,44.0,35.0,29.25,North,0,1.0,1.0,70,0.00,,,0.00,,2013-03-06 05:32:00,
2013-03-05 21:42:00,44.0,35.0,29.25,North,0,1.0,1.0,70,0.00,,,0.00,,2013-03-06 05:42:00,
2013-03-05 21:52:00,44.0,35.0,29.24,WNW,293,1.0,2.0,71,0.00,,,0.00,,2013-03-06 05:52:00,
2013-03-05 22:01:00,44.0,36.0,29.24,NE,45,0.0,1.0,73,0.00,,,0.00,,2013-03-06 06:01:00,
2013-03-05 22:11:00,44.0,36.0,29.24,NE,45,0.0,1.0,73,0.00,,,0.00,,2013-03-06 06:11:00,
2013-03-05 22:22:00,44.0,36.0,29.23,NNW,338,0.0,0.0,73,0.00,,,0.00,,2013-03-06 06:22:00,
2013-03-05 22:31:00,44.0,36.0,29.23,ENE,68,0.0,1.0,74,0.00,,,0.00,,2013-03-06 06:31:00,
2013-03-05 22:41:00,44.0,36.0,29.23,ENE,68,0.0,1.0,74,0.00,,,0.00,,2013-03-06 06:41:00,
2013-03-05 22:52:00,44.0,36.0,29.23,NNW,338,1.0,2.0,74,0.00,,,0.00,,2013-03-06 06:52:00,
2013-03-05 23:01:00,43.0,35.0,29.22,NNW,338,0.0,3.0,74,0.00,,,0.00,,2013-03-06 07:01:00,
2013-03-05 23:11:00,43.0,35.0,29.22,NNW,338,0.0,3.0,74,0.00,,,0.00,,2013-03-06 07:11:00,
2013-03-05 23:22:00,43.0,35.0,29.21,NNE,23,0.0,1.0,74,0.00,,,0.00,,2013-03-06 07:22:00,
2013-03-05 23:31:00,43.0,36.0,29.21,North,0,0.0,0.0,75,0.00,,,0.00,,2013-03-06 07:31:00,
2013-03-05 23:41:00,43.0,36.0,29.21,North,0,0.0,0.0,75,0.00,,,0.00,,2013-03-06 07:41:00,
2013-03-05 23:52:00,43.0,36.0,29.21,North,0,1.0,1.0,75,0.00,,,0.00,,2013-03-06 07:52:00,